Taos, NM

9:25 AM MDT on April 23, 2018 (GMT -0600)
Taos Municipal

Weather History for KSKX - May, 2013

Change the Weather History Date:

Wednesday, May 1, 2013

  Actual Average Record
Temperature  
Mean Temperature 54 °F -  
Max Temperature 73 °F 63 °F 78 °F (2001)
Min Temperature 33 °F 30 °F 19 °F (2003)
Degree Days  
Heating Degree Days 11    
Growing Degree Days 4 (Base 50)    
Moisture  
Dew Point 16 °F    
Average Humidity 21    
Maximum Humidity 46    
Minimum Humidity 14    
Precipitation  
Precipitation 0.00 in - - ()
Sea Level Pressure  
Sea Level Pressure 30.06 in    
Wind  
Wind Speed 11 mph (WSW)    
Max Wind Speed 31 mph    
Max Gust Speed 40 mph    
Visibility 10 miles    
Events      
Averages and records for this station are not official NWS values.
T = Trace of Precipitation, MM = Missing Value Source: NWS Daily Summary

Daily Weather History Graph

Daily Weather History Graph

Search for Another Location

Airport or City:

Astronomy

May. 01, 2013 Rise Set
Actual Time 6:08 AM MDT 7:51 PM MDT
Civil Twilight 5:41 AM MDT 8:18 PM MDT
Nautical Twilight 5:07 AM MDT 8:52 PM MDT
Astronomical Twilight 4:32 AM MDT 9:27 PM MDT
Moon 1:02 AM MDT (5/1) 11:50 AM MDT (5/1)
Length of Visible Light 14h 37m
Length of Day
13h 42m
Waning Gibbous, 58% of the Moon is Illuminated
May 1
Waning Gibbous
May 2
Last Quarter
May 9
New
May 17
First Quarter
May 24
Full

Hourly Weather History & Observations

Time (MDT) Temp. Windchill Dew Point Humidity Pressure Visibility Wind Dir Wind Speed Gust Speed Precip Events Conditions
12:15 AM 55.4 °F - 8.6 °F 15% 29.93 in 10.0 mi Calm Calm - N/A   Clear
12:35 AM 57.2 °F - 10.4 °F 16% 29.94 in 10.0 mi ESE 6.9 mph - N/A   Clear
12:55 AM 55.4 °F - 8.6 °F 15% 29.95 in 10.0 mi South 5.8 mph - N/A   Clear
1:15 AM 55.4 °F - 10.4 °F 17% 29.96 in 10.0 mi South 4.6 mph - N/A   Clear
1:35 AM 51.8 °F - 8.6 °F 18% 29.96 in 10.0 mi SSE 6.9 mph - N/A   Clear
1:55 AM 51.8 °F - 10.4 °F 19% 29.97 in 10.0 mi SSE 5.8 mph - N/A   Clear
2:15 AM 50.0 °F - 8.6 °F 19% 29.97 in 10.0 mi SSE 8.1 mph - N/A   Clear
2:35 AM 51.8 °F - 10.4 °F 19% 29.97 in 10.0 mi SSE 6.9 mph - N/A   Clear
2:55 AM 51.8 °F - 10.4 °F 19% 29.97 in 10.0 mi SSW 6.9 mph - N/A   Clear
3:15 AM 50.0 °F - 10.4 °F 20% 29.98 in 10.0 mi SW 13.8 mph - N/A   Clear
3:35 AM 51.8 °F - 12.2 °F 21% 29.98 in 10.0 mi SSW 10.4 mph - N/A   Clear
4:15 AM 51.8 °F - 12.2 °F 21% 30.00 in 10.0 mi SSW 8.1 mph - N/A   Clear
4:35 AM 51.8 °F - 12.2 °F 21% 30.00 in 10.0 mi SW 5.8 mph - N/A   Clear
4:55 AM 51.8 °F - 10.4 °F 19% 30.00 in 10.0 mi SSW 4.6 mph - N/A   Clear
5:15 AM 48.2 °F - 10.4 °F 22% 30.01 in 10.0 mi South 4.6 mph - N/A   Clear
5:35 AM 46.4 °F - 10.4 °F 23% 30.02 in 10.0 mi Calm Calm - N/A   Clear
5:55 AM 46.4 °F - 10.4 °F 23% 30.03 in 10.0 mi Calm Calm - N/A   Clear
6:15 AM 46.4 °F - 12.2 °F 25% 30.04 in 10.0 mi Calm Calm - N/A   Clear
6:35 AM 41.0 °F 39.0 °F 8.6 °F 26% 30.05 in 10.0 mi East 3.5 mph - N/A   Clear
7:15 AM 53.6 °F - 15.8 °F 22% 30.07 in 10.0 mi SW 4.6 mph - N/A   Clear
7:35 AM 53.6 °F - 14.0 °F 21% 30.07 in 10.0 mi SW 8.1 mph - N/A   Clear
7:55 AM 57.2 °F - 17.6 °F 21% 30.06 in 10.0 mi SW 11.5 mph - N/A   Partly Cloudy
8:15 AM 59.0 °F - 15.8 °F 19% 30.06 in 10.0 mi SW 11.5 mph - N/A   Clear
8:35 AM 60.8 °F - 15.8 °F 17% 30.06 in 10.0 mi West 12.7 mph 24.2 mph N/A   Clear
9:15 AM 62.6 °F - 17.6 °F 18% 30.06 in 10.0 mi WSW 16.1 mph 24.2 mph N/A   Clear
9:35 AM 62.6 °F - 17.6 °F 18% 30.06 in 10.0 mi SSW 6.9 mph 24.2 mph N/A   Clear
9:55 AM 64.4 °F - 17.6 °F 16% 30.06 in 10.0 mi West 9.2 mph 18.4 mph N/A   Clear
10:15 AM 66.2 °F - 17.6 °F 15% 30.06 in 10.0 mi West 12.7 mph 19.6 mph N/A   Clear
10:35 AM 64.4 °F - 17.6 °F 16% 30.05 in 10.0 mi SSW 17.3 mph 21.9 mph N/A   Clear
10:55 AM 66.2 °F - 17.6 °F 15% 30.06 in 10.0 mi West 11.5 mph 24.2 mph N/A   Scattered Clouds
11:15 AM 68.0 °F - 19.4 °F 16% 30.06 in 10.0 mi WSW 13.8 mph 26.5 mph N/A   Mostly Cloudy
11:35 AM 68.0 °F - 19.4 °F 16% 30.05 in 10.0 mi SW 16.1 mph 25.3 mph N/A   Clear
11:55 AM 68.0 °F - 19.4 °F 16% 30.05 in 10.0 mi West 17.3 mph 27.6 mph N/A   Scattered Clouds
12:15 PM 71.6 °F - 19.4 °F 14% 30.05 in 10.0 mi West 24.2 mph 31.1 mph N/A   Partly Cloudy
12:35 PM 71.6 °F - 21.2 °F 15% 30.04 in 10.0 mi West 18.4 mph 38.0 mph N/A   Clear
12:55 PM 71.6 °F - 21.2 °F 15% 30.03 in 10.0 mi West 27.6 mph 38.0 mph N/A   Clear
1:15 PM 71.6 °F - 21.2 °F 15% 30.04 in 10.0 mi West 24.2 mph 38.0 mph N/A   Clear
1:35 PM 73.4 °F - 21.2 °F 14% 30.04 in 10.0 mi West 28.8 mph 35.7 mph N/A   Clear
1:55 PM 69.8 °F - 21.2 °F 16% 30.04 in 10.0 mi West 23.0 mph 31.1 mph N/A   Partly Cloudy
2:15 PM 71.6 °F - 21.2 °F 15% 30.04 in 10.0 mi West 27.6 mph 34.5 mph N/A   Scattered Clouds
2:35 PM 69.8 °F - 19.4 °F 15% 30.04 in 10.0 mi West 28.8 mph 40.3 mph N/A   Mostly Cloudy
3:15 PM 71.6 °F - 21.2 °F 15% 30.04 in 10.0 mi West 29.9 mph 35.7 mph N/A   Scattered Clouds
3:35 PM 69.8 °F - 21.2 °F 16% 30.05 in 10.0 mi WNW 24.2 mph 33.4 mph N/A   Partly Cloudy
4:15 PM 69.8 °F - 21.2 °F 16% 30.04 in 10.0 mi West 27.6 mph 34.5 mph N/A   Mostly Cloudy
4:35 PM 66.2 °F - 21.2 °F 18% 30.04 in 10.0 mi West 19.6 mph 32.2 mph N/A   Scattered Clouds
4:55 PM 68.0 °F - 21.2 °F 17% 30.04 in 8.0 mi West 31.1 mph 40.3 mph N/A   Scattered Clouds
5:15 PM 68.0 °F - 21.2 °F 17% 30.04 in 10.0 mi West 24.2 mph 38.0 mph N/A   Partly Cloudy
5:35 PM 69.8 °F - 21.2 °F 16% 30.02 in 10.0 mi West 29.9 mph 35.7 mph N/A   Partly Cloudy
5:55 PM 69.8 °F - 21.2 °F 16% 30.02 in 10.0 mi West 25.3 mph 35.7 mph N/A   Clear
6:15 PM 68.0 °F - 21.2 °F 17% 30.01 in 10.0 mi WNW 28.8 mph 33.4 mph N/A   Clear
6:35 PM 66.2 °F - 19.4 °F 17% 30.01 in 10.0 mi West 25.3 mph 34.5 mph N/A   Clear
6:55 PM 64.4 °F - 19.4 °F 18% 30.02 in 10.0 mi West 23.0 mph 34.5 mph N/A   Clear
7:35 PM 55.4 °F - 24.8 °F 31% 30.07 in 10.0 mi ESE 18.4 mph 26.5 mph N/A   Clear
7:55 PM 53.6 °F - 28.4 °F 38% 30.08 in 9.0 mi ESE 24.2 mph 33.4 mph N/A   Mostly Cloudy
8:35 PM 48.2 °F - 28.4 °F 46% 30.14 in 10.0 mi ESE 24.2 mph 31.1 mph N/A   Overcast
8:55 PM 48.2 °F - 28.4 °F 46% 30.16 in 10.0 mi ESE 16.1 mph 26.5 mph N/A   Overcast
9:15 PM 46.4 °F 38.1 °F 26.6 °F 46% 30.18 in 10.0 mi ESE 24.2 mph 29.9 mph N/A   Overcast
9:35 PM 48.2 °F - 19.4 °F 32% 30.24 in 10.0 mi NNE 17.3 mph - N/A   Overcast
9:55 PM 42.8 °F 35.8 °F 12.2 °F 29% 30.25 in 10.0 mi North 13.8 mph 20.7 mph N/A   Overcast
10:15 PM 42.8 °F 33.8 °F 12.2 °F 29% 30.26 in 10.0 mi North 21.9 mph 27.6 mph N/A   Overcast
10:35 PM 41.0 °F 30.9 °F 12.2 °F 31% 30.27 in 10.0 mi NNW 24.2 mph 29.9 mph N/A   Overcast
10:55 PM 37.4 °F 27.8 °F 10.4 °F 33% 30.28 in 10.0 mi NNW 17.3 mph 26.5 mph N/A   Overcast
11:15 PM 37.4 °F 27.5 °F 10.4 °F 33% 30.31 in 10.0 mi NNW 18.4 mph 24.2 mph N/A   Overcast
11:35 PM 35.6 °F 25.9 °F 10.4 °F 35% 30.31 in 10.0 mi NNW 16.1 mph 25.3 mph N/A   Mostly Cloudy
11:55 PM 33.8 °F 24.8 °F 10.4 °F 38% 30.33 in 10.0 mi NNW 12.7 mph - N/A   Partly Cloudy